Location: eljas
(40.1958°N, 6.8661°W)
Time: 00:16:55
(UTC+02:00)

Amateur Radio Satellites - All Passes

Search period start: 25 September 2017 23:46
Search period end: 26 September 2017 23:46
Location: eljas, 40.1958°N, 6.8661°W

Satellite Date Start Highest point End Downlink Frequencies (MHz)
Time Altitude Azimuth
YUBILEINY 25 Sep 23:56:35 00:03:56 29° 69° (ENE) 00:11:16 435.215
Max Valier Satellite 25 Sep 23:56:38 00:00:06 38° 262° (W) 00:03:38 145.860
UNISAT 6 26 Sep 00:08:09 00:12:47 57° 100° (E) 00:17:24 437.425
LO-87 26 Sep 00:08:42 00:11:30 22° 70° (ENE) 00:14:19 145.935 - 145.965
PRISM 26 Sep 00:26:03 00:29:54 41° 99° (E) 00:33:45 437.425
ISS 26 Sep 00:30:19 00:31:48 12° 352° (N) 00:33:16 437.550
TIGRISAT 26 Sep 00:31:10 00:35:53 89° 268° (W) 00:40:35 435.000
ESTCUBE 1 26 Sep 00:46:58 00:51:20 50° 73° (ENE) 00:55:43 437.505/2401.250
PCSat 26 Sep 00:50:09 00:55:25 49° 56° (ENE) 01:00:38 145.827
SPROUT 26 Sep 00:50:52 00:52:50 13° 64° (ENE) 00:54:48 437.525
EO-88 26 Sep 00:55:30 00:56:09 10° 269° (W) 00:56:47 145.990 - 145.960
SO-50 26 Sep 00:57:45 01:02:01 38° 244° (WSW) 01:06:19 436.795
nSIGHT-1 26 Sep 01:06:24 01:07:25 11° 0° (N) 01:08:26 .
VELOX 1 26 Sep 01:08:02 01:10:40 16° 64° (ENE) 01:13:19 145.980
AIST 2D 26 Sep 01:18:51 01:22:07 34° 98° (E) 01:25:20 435.315
NANOSAT C BR1 26 Sep 01:23:09 01:25:20 14° 92° (E) 01:27:30 145.865
FO-29 26 Sep 01:24:47 01:27:52 15° 298° (WNW) 01:31:06 435.910
LO-87 26 Sep 01:42:13 01:44:51 20° 265° (W) 01:47:30 145.935 - 145.965
UNISAT 6 26 Sep 01:46:14 01:49:00 16° 296° (WNW) 01:51:46 437.425
DUCHIFAT 1 26 Sep 01:49:14 01:52:42 24° 95° (E) 01:56:08 145.980
YUBILEINY 26 Sep 01:52:43 02:01:14 61° 269° (W) 02:09:47 435.215
PRISM 26 Sep 02:02:23 02:04:49 16° 295° (WNW) 02:07:15 437.425
POLYITAN 1 26 Sep 02:05:58 02:10:08 47° 99° (E) 02:14:16 437.675
ISS 26 Sep 02:07:35 02:09:22 14° 12° (NNE) 02:11:09 437.550
DX 1 26 Sep 02:09:05 02:12:07 19° 66° (ENE) 02:15:09 434.975-435.025
EO-79 26 Sep 02:09:34 02:13:46 52° 100° (E) 02:17:56 145.935-145.965
Tancredo 1 26 Sep 02:16:46 02:19:17 36° 31° (NNE) 02:21:48 437.200
BUGSAT 1 26 Sep 02:16:51 02:18:35 12° 91° (E) 02:20:19 437.445
QB50P2 26 Sep 02:23:58 02:28:16 86° 100° (E) 02:32:33 145.880/145.840
SPROUT 26 Sep 02:24:04 02:28:14 55° 260° (W) 02:32:25 437.525
ESTCUBE 1 26 Sep 02:25:47 02:28:23 15° 268° (W) 02:31:00 437.505/2401.250
PCSat 26 Sep 02:34:17 02:38:26 23° 254° (WSW) 02:42:34 145.827
50 SAT 26 Sep 02:37:35 02:40:43 41° 74° (ENE) 02:43:52 437.505
nSIGHT-1 26 Sep 02:42:20 02:44:45 19° 21° (NNE) 02:47:09 .
VELOX 1 26 Sep 02:42:27 02:46:42 48° 260° (W) 02:50:58 145.980
AIST 2D 26 Sep 02:53:15 02:54:57 13° 293° (WNW) 02:56:41 435.315
NANOSAT C BR1 26 Sep 02:57:10 03:01:17 49° 287° (WNW) 03:05:23 145.865
O/OREOS (USA 219) 26 Sep 02:58:44 03:02:22 24° 102° (ESE) 03:06:02 437.305
M-CUBED/EXP-1 PRIME 26 Sep 03:24:01 03:27:18 71° 107° (ESE) 03:30:31 437.505
DUCHIFAT 1 26 Sep 03:24:40 03:28:19 28° 291° (WNW) 03:31:57 145.980
UKube-1 26 Sep 03:31:42 03:35:59 84° 254° (WSW) 03:40:19 .
BEESAT 26 Sep 03:41:41 03:44:34 16° 63° (ENE) 03:47:28 436.000
POLYITAN 1 26 Sep 03:42:59 03:45:30 15° 295° (WNW) 03:48:01 437.675
ISS 26 Sep 03:43:21 03:46:31 42° 31° (NNE) 03:49:40 437.550
DX 1 26 Sep 03:43:58 03:48:00 38° 261° (W) 03:52:04 434.975-435.025
Oscar 19 26 Sep 03:44:16 03:49:19 52° 100° (E) 03:54:18 437.125/150
EO-79 26 Sep 03:46:50 03:49:04 14° 296° (WNW) 03:51:17 145.935-145.965
Gurwin Techsat 1B 26 Sep 03:48:03 03:53:00 38° 98° (E) 03:57:54 435.225
BUGSAT 1 26 Sep 03:50:06 03:54:14 54° 286° (WNW) 03:58:22 437.445
Tancredo 1 26 Sep 03:51:47 03:53:31 16° 228° (SW) 03:55:14 437.200
MOZHAYETS 4 26 Sep 03:51:53 03:55:05 19° 65° (ENE) 03:58:18
nSIGHT-1 26 Sep 04:18:09 04:21:24 81° 219° (SW) 04:24:39 .
BEESAT 3 26 Sep 04:31:27 04:33:48 15° 43° (NE) 04:36:07 437.485
RS-15 26 Sep 04:36:10 04:42:13 15° 95° (E) 04:48:15 29.354- 29.394
O/OREOS (USA 219) 26 Sep 04:37:36 04:41:37 31° 299° (WNW) 04:45:41 437.305
ITUPSAT 1 26 Sep 04:42:06 04:46:48 63° 74° (ENE) 04:51:33 437.325
AO-7 26 Sep 04:54:20 05:00:58 26° 95° (E) 05:07:34 .
ITAMSAT 1 26 Sep 04:55:49 04:58:48 15° 91° (E) 05:01:48 435.822/435.867
BEESAT 26 Sep 05:17:12 05:21:52 56° 259° (W) 05:26:34 436.000
ISS 26 Sep 05:20:15 05:22:48 21° 227° (SW) 05:25:20 437.550
Oscar 19 26 Sep 05:24:35 05:28:12 20° 297° (WNW) 05:31:48 437.125/150
MOZHAYETS 4 26 Sep 05:27:29 05:31:53 44° 261° (W) 05:36:20
Gurwin Techsat 1B 26 Sep 05:28:20 05:32:45 27° 294° (WNW) 05:37:08 435.225
KKS-1 26 Sep 05:31:47 05:34:19 15° 64° (ENE) 05:36:50 437.445
CUBESAT XI-V 26 Sep 05:59:56 06:04:38 84° 77° (ENE) 06:09:22 437.345
BEESAT 3 26 Sep 06:07:49 06:11:43 59° 242° (WSW) 06:15:33 437.485
BEESAT 2 26 Sep 06:20:50 06:24:50 56° 56° (NE) 06:28:46 435.950
AO-85 26 Sep 06:22:25 06:26:51 64° 56° (ENE) 06:31:38 145.980
ITUPSAT 1 26 Sep 06:22:46 06:25:01 13° 269° (W) 06:27:17 437.325
ITAMSAT 1 26 Sep 06:33:31 06:38:40 63° 287° (WNW) 06:43:48 435.822/435.867
RS-15 26 Sep 06:40:15 06:52:21 71° 115° (ESE) 07:04:33 29.354- 29.394
AO-7 26 Sep 06:46:04 06:54:16 67° 292° (WNW) 07:02:27 .
KKS-1 26 Sep 07:06:08 07:10:26 51° 260° (W) 07:14:45 437.445
DOVE 4 26 Sep 07:21:33 07:25:39 42° 99° (E) 07:29:56 437.250
STARS 26 Sep 07:23:07 07:27:28 85° 257° (WSW) 07:31:51 437.465
LilacSat-2 26 Sep 07:24:12 07:24:49 10° 90° (E) 07:25:25 437.200
BEESAT 2 26 Sep 08:00:24 08:02:04 12° 252° (WSW) 08:03:42 435.950
AO-85 26 Sep 08:04:21 08:06:52 14° 250° (WSW) 08:09:26 145.980
XW-2D 26 Sep 08:06:23 08:09:52 34° 97° (E) 08:13:19 145.860 - 145.880
XW-2F 26 Sep 08:16:36 08:20:13 41° 98° (E) 08:23:47 145.980 - 146.000
XW-2B 26 Sep 08:18:41 08:22:22 47° 99° (E) 08:26:00 145.730 - 145.750
STRAND 1 26 Sep 08:30:57 08:35:42 41° 70° (ENE) 08:40:28 437.568
NUDT-PHONESAT 26 Sep 08:31:14 08:34:51 48° 99° (E) 08:38:25 437.300
CUTE 1.7 + AOD 2 26 Sep 08:37:34 08:40:05 15° 92° (E) 08:42:36 437.475
CUTE-I 26 Sep 08:39:40 08:44:58 62° 101° (E) 08:50:15 437.470
XW-2C 26 Sep 08:40:06 08:43:56 87° 282° (WNW) 08:47:42 145.795 - 145.815
AO-7 26 Sep 08:41:13 08:45:30 15° 313° (NW) 08:49:47 .
RS-15 26 Sep 08:54:22 09:05:47 41° 320° (NW) 09:17:12 29.354- 29.394
LilacSat-2 26 Sep 08:55:39 08:59:23 50° 285° (WNW) 09:03:04 437.200
DOVE 4 26 Sep 09:00:17 09:03:04 17° 293° (WNW) 09:05:56 437.250
KAITUO 1B 26 Sep 09:03:56 09:07:37 58° 285° (WNW) 09:11:15 145.475/437.950
HO-68 26 Sep 09:11:57 09:18:47 44° 99° (E) 09:25:34 435.675
CUBEBUG 2 26 Sep 09:32:22 09:36:48 38° 97° (E) 09:41:14 437.445
UWE-3 26 Sep 09:34:13 09:37:59 23° 94° (E) 09:41:42 435.000/436.395/437.385
XW-2A 26 Sep 09:38:14 09:41:13 27° 97° (E) 09:44:10 145.665 - 145.685
SEEDS 26 Sep 09:38:47 09:42:50 47° 99° (E) 09:46:50 437.485
XW-2D 26 Sep 09:41:24 09:43:45 16° 293° (WNW) 09:46:04 145.860 - 145.880
FO-29 26 Sep 09:50:51 09:55:31 28° 67° (ENE) 09:59:57 435.910
XW-2F 26 Sep 09:52:07 09:53:56 13° 294° (WNW) 09:55:45 145.980 - 146.000
AAUSAT CUBESAT 2 26 Sep 09:53:42 09:57:18 29° 96° (E) 10:00:53 437.432
XW-2B 26 Sep 09:54:36 09:56:06 12° 295° (WNW) 09:57:36 145.730 - 145.750
NUDT-PHONESAT 26 Sep 10:07:02 10:08:16 11° 295° (WNW) 10:09:29 437.300
Oscar 11 26 Sep 10:07:58 10:10:44 16° 92° (E) 10:13:29 .
STRAND 1 26 Sep 10:11:01 10:15:00 23° 266° (W) 10:19:00 437.568
AO-73 26 Sep 10:11:12 10:15:07 27° 95° (E) 10:18:58 145.935
CUTE 1.7 + AOD 2 26 Sep 10:12:06 10:16:06 42° 288° (WNW) 10:20:03 437.475
ZACube-1 26 Sep 10:15:30 10:19:42 34° 96° (E) 10:23:50 437.345
CUTE-I 26 Sep 10:21:03 10:24:29 18° 298° (WNW) 10:27:56 437.470
DELFI C3 26 Sep 10:59:04 11:00:32 12° 91° (E) 11:02:00 145.870
HO-68 26 Sep 10:59:56 11:06:20 36° 296° (WNW) 11:12:43 435.675
UNISAT 6 26 Sep 11:06:18 11:10:25 43° 72° (ENE) 11:14:39 437.425
CUBEBUG 2 26 Sep 11:09:31 11:13:08 22° 293° (WNW) 11:16:47 437.445
UWE-3 26 Sep 11:10:14 11:14:26 34° 290° (WNW) 11:18:38 435.000/436.395/437.385
XW-2A 26 Sep 11:11:37 11:13:41 15° 292° (WNW) 11:15:44 145.665 - 145.685
RS-15 26 Sep 11:14:15 11:23:01 21° 353° (N) 11:31:37 29.354- 29.394
PRISM 26 Sep 11:14:45 11:18:13 27° 69° (ENE) 11:21:41 437.425
SEEDS 26 Sep 11:15:48 11:18:05 15° 295° (WNW) 11:20:22 437.485
Max Valier Satellite 26 Sep 11:27:27 11:30:09 19° 94° (E) 11:32:50 145.860
TIGRISAT 26 Sep 11:28:57 11:33:16 72° 75° (ENE) 11:37:44 435.000
AAUSAT CUBESAT 2 26 Sep 11:29:28 11:32:34 21° 292° (WNW) 11:35:39 437.432
FO-29 26 Sep 11:35:27 11:40:33 34° 262° (W) 11:45:20 435.910
Oscar 11 26 Sep 11:42:57 11:47:02 41° 288° (WNW) 11:51:05 .
AO-73 26 Sep 11:47:22 11:51:16 28° 291° (WNW) 11:55:07 145.935
ZACube-1 26 Sep 11:52:09 11:55:45 23° 293° (WNW) 11:59:19 437.345
AIST 2D 26 Sep 11:53:54 11:55:32 13° 67° (ENE) 11:57:09 435.315
EO-88 26 Sep 12:21:08 12:24:47 68° 101° (E) 12:28:24 145.990 - 145.960
DELFI C3 26 Sep 12:31:47 12:35:32 47° 286° (WNW) 12:39:17 145.870
DUCHIFAT 1 26 Sep 12:41:02 12:43:44 17° 66° (ENE) 12:46:26 145.980
ESTCUBE 1 26 Sep 12:42:37 12:43:35 11° 90° (E) 12:44:34 437.505/2401.250
UNISAT 6 26 Sep 12:44:37 12:47:20 16° 268° (W) 12:50:08 437.425
PRISM 26 Sep 12:50:13 12:53:27 22° 265° (W) 12:56:41 437.425
YUBILEINY 26 Sep 12:57:16 13:04:44 33° 84° (E) 13:12:10 435.215
POLYITAN 1 26 Sep 12:57:52 13:01:37 32° 70° (ENE) 13:05:24 437.675
Max Valier Satellite 26 Sep 13:00:47 13:03:58 27° 289° (WNW) 13:07:07 145.860
EO-79 26 Sep 13:01:15 13:05:04 35° 71° (ENE) 13:08:55 145.935-145.965
O/OREOS (USA 219) 26 Sep 13:08:19 13:12:44 44° 64° (ENE) 13:17:08 437.305
LO-87 26 Sep 13:08:34 13:11:46 29° 97° (E) 13:14:59 145.935 - 145.965
QB50P2 26 Sep 13:15:33 13:19:40 57° 74° (ENE) 13:23:50 145.880/145.840
AIST 2D 26 Sep 13:25:02 13:28:21 37° 262° (W) 13:31:41 435.315
RS-15 26 Sep 13:31:00 13:41:12 30° 28° (NNE) 13:50:57 29.354- 29.394
NANOSAT C BR1 26 Sep 13:47:59 13:52:09 74° 257° (WSW) 13:56:24 145.865
NO-84 26 Sep 13:52:01 13:56:01 78° 136° (SE) 13:59:42 435.350 FM
M-CUBED/EXP-1 PRIME 26 Sep 14:08:19 14:12:34 85° 69° (ENE) 14:16:30 437.505
SPROUT 26 Sep 14:10:28 14:14:00 24° 95° (E) 14:17:31 437.525
DUCHIFAT 1 26 Sep 14:15:07 14:19:03 40° 262° (W) 14:23:02 145.980
ESTCUBE 1 26 Sep 14:16:22 14:20:50 68° 285° (WNW) 14:25:15 437.505/2401.250
VELOX 1 26 Sep 14:32:55 14:36:50 31° 97° (E) 14:40:43 145.980
POLYITAN 1 26 Sep 14:34:18 14:37:26 20° 266° (W) 14:40:35 437.675
EO-79 26 Sep 14:37:58 14:40:55 18° 267° (W) 14:43:53 145.935-145.965
BUGSAT 1 26 Sep 14:38:42 14:42:43 87° 257° (WSW) 14:46:49 437.445
LO-87 26 Sep 14:42:38 14:44:56 16° 292° (WNW) 14:47:15 145.935 - 145.965
O/OREOS (USA 219) 26 Sep 14:48:42 14:51:46 18° 260° (W) 14:54:49 437.305
YUBILEINY 26 Sep 14:52:44 15:01:07 52° 284° (WNW) 15:09:34 435.215
QB50P2 26 Sep 14:54:27 14:55:48 11° 270° (W) 14:57:10 145.880/145.840
Oscar 19 26 Sep 15:00:19 15:05:29 72° 73° (ENE) 15:10:40 437.125/150
Gurwin Techsat 1B 26 Sep 15:08:26 15:13:37 58° 72° (ENE) 15:18:50 435.225
SO-50 26 Sep 15:10:50 15:15:18 77° 122° (ESE) 15:19:49 436.795
UKube-1 26 Sep 15:20:17 15:23:00 16° 93° (E) 15:25:41 .
50 SAT 26 Sep 15:30:18 15:33:28 42° 99° (E) 15:36:37 437.505
PCSat 26 Sep 15:31:01 15:36:13 50° 113° (ESE) 15:41:27 145.827
NO-84 26 Sep 15:31:05 15:33:44 18° 331° (NNW) 15:36:15 435.350 FM
DX 1 26 Sep 15:32:20 15:36:19 35° 98° (E) 15:40:17 434.975-435.025
RS-15 26 Sep 15:43:53 15:55:58 79° 57° (ENE) 16:07:19 29.354- 29.394
SPROUT 26 Sep 15:46:10 15:49:50 28° 291° (WNW) 15:53:28 437.525
AO-7 26 Sep 15:52:39 16:00:00 37° 60° (ENE) 16:07:21 .
VELOX 1 26 Sep 16:09:37 16:13:06 23° 293° (WNW) 16:16:34 145.980
ITAMSAT 1 26 Sep 16:12:54 16:16:55 24° 65° (ENE) 16:20:57 435.822/435.867
Oscar 19 26 Sep 16:42:55 16:45:17 13° 270° (W) 16:47:40 437.125/150
ITUPSAT 1 26 Sep 16:44:16 16:47:19 17° 92° (E) 16:50:21 437.325
Gurwin Techsat 1B 26 Sep 16:50:31 16:53:55 17° 268° (W) 16:57:20 435.225
SO-50 26 Sep 16:53:40 16:56:19 15° 319° (NW) 16:58:58 436.795
UKube-1 26 Sep 16:55:07 16:59:11 42° 289° (WNW) 17:03:14 .
DX 1 26 Sep 17:09:03 17:12:16 20° 294° (WNW) 17:15:27 434.975-435.025
PCSat 26 Sep 17:15:24 17:19:51 25° 311° (NW) 17:24:20 145.827
BEESAT 26 Sep 17:17:47 17:22:15 37° 98° (E) 17:26:40 436.000
MOZHAYETS 4 26 Sep 17:22:46 17:27:13 43° 99° (E) 17:31:36
AO-7 26 Sep 17:44:24 17:52:27 52° 258° (WSW) 18:00:33 .
ITAMSAT 1 26 Sep 17:51:13 17:56:06 42° 261° (W) 18:01:01 435.822/435.867
CUBESAT XI-V 26 Sep 17:57:46 18:01:17 21° 94° (E) 18:04:47 437.345
RS-15 26 Sep 17:57:52 18:07:00 28° 258° (WSW) 18:15:51 29.354- 29.394
ITUPSAT 1 26 Sep 18:20:44 18:25:25 51° 288° (WNW) 18:30:03 437.325
CUTE-I 26 Sep 18:24:44 18:26:57 13° 59° (ENE) 18:29:11 437.470
DOVE 4 26 Sep 18:26:39 18:30:42 38° 72° (ENE) 18:34:37 437.250
XW-2D 26 Sep 18:47:43 18:50:12 17° 67° (ENE) 18:52:41 145.860 - 145.880
BEESAT 26 Sep 18:56:01 18:59:46 23° 294° (WNW) 19:03:31 436.000
XW-2F 26 Sep 18:57:16 19:00:03 19° 68° (ENE) 19:02:51 145.980 - 146.000
KKS-1 26 Sep 18:57:36 19:01:30 29° 97° (E) 19:05:24 437.445
XW-2B 26 Sep 18:59:36 19:02:35 22° 69° (ENE) 19:05:34 145.730 - 145.750
MOZHAYETS 4 26 Sep 19:00:47 19:04:01 19° 295° (WNW) 19:07:14
NUDT-PHONESAT 26 Sep 19:10:07 19:12:56 20° 69° (ENE) 19:15:45 437.300
STARS 26 Sep 19:13:49 19:16:49 18° 93° (E) 19:19:49 437.465
XW-2C 26 Sep 19:20:25 19:24:01 39° 73° (ENE) 19:27:37 145.795 - 145.815
CUTE 1.7 + AOD 2 26 Sep 19:31:02 19:32:22 11° 63° (ENE) 19:33:41 437.475
CUBESAT XI-V 26 Sep 19:34:31 19:38:44 36° 290° (WNW) 19:42:56 437.345
LilacSat-2 26 Sep 19:36:13 19:40:04 68° 76° (ENE) 19:43:56 437.200
HO-68 26 Sep 19:40:26 19:46:32 32° 62° (ENE) 19:52:39 435.675
KAITUO 1B 26 Sep 19:42:39 19:46:21 54° 75° (ENE) 19:50:04 145.475/437.950
BEESAT 3 26 Sep 19:56:55 20:00:11 24° 113° (ESE) 20:03:28 437.485
CUTE-I 26 Sep 20:00:55 20:06:14 87° 256° (WSW) 20:11:34 437.470
DOVE 4 26 Sep 20:05:43 20:08:31 17° 266° (W) 20:11:17 437.250
Tancredo 1 26 Sep 20:08:36 20:11:16 82° 324° (NW) 20:13:57 437.200
BEESAT 2 26 Sep 20:14:18 20:15:11 11° 107° (ESE) 20:16:03 435.950
XW-2D 26 Sep 20:20:35 20:24:05 33° 263° (W) 20:27:37 145.860 - 145.880
ISS 26 Sep 20:23:46 20:25:54 16° 131° (SE) 20:28:02 437.550
NO-84 26 Sep 20:26:38 20:29:29 32° 36° (NE) 20:32:10 435.350 FM
SEEDS 26 Sep 20:29:43 20:33:26 30° 70° (ENE) 20:37:08 437.485
CUBEBUG 2 26 Sep 20:30:06 20:33:45 28° 69° (ENE) 20:37:30 437.445
XW-2F 26 Sep 20:30:39 20:33:58 28° 264° (W) 20:37:19 145.980 - 146.000
UWE-3 26 Sep 20:31:17 20:34:07 17° 65° (ENE) 20:37:01 435.000/436.395/437.385
XW-2B 26 Sep 20:33:25 20:36:37 25° 264° (W) 20:39:50 145.730 - 145.750
KKS-1 26 Sep 20:34:17 20:37:55 25° 292° (WNW) 20:41:32 437.445
AO-85 26 Sep 20:37:52 20:40:42 19° 112° (ESE) 20:43:31 145.980
STRAND 1 26 Sep 20:43:20 20:46:04 14° 91° (E) 20:48:48 437.568
NUDT-PHONESAT 26 Sep 20:43:30 20:46:37 25° 264° (W) 20:49:48 437.300
AAUSAT CUBESAT 2 26 Sep 20:43:36 20:46:32 19° 67° (ENE) 20:49:30 437.432
STARS 26 Sep 20:49:10 20:53:17 40° 289° (WNW) 20:57:25 437.465
nSIGHT-1 26 Sep 20:55:57 20:58:57 38° 137° (SE) 21:01:59 .
XW-2C 26 Sep 20:56:19 20:58:21 14° 268° (W) 21:00:23 145.795 - 145.815
Oscar 11 26 Sep 21:03:10 21:05:07 13° 63° (ENE) 21:07:05 .
CUTE 1.7 + AOD 2 26 Sep 21:03:20 21:07:36 67° 259° (W) 21:11:52 437.475
AO-73 26 Sep 21:06:25 21:09:36 20° 66° (ENE) 21:12:50 145.935
ZACube-1 26 Sep 21:10:49 21:14:22 25° 68° (ENE) 21:17:59 437.345
HO-68 26 Sep 21:27:03 21:33:56 51° 260° (W) 21:40:53 435.675
BEESAT 3 26 Sep 21:34:03 21:37:36 30° 310° (NW) 21:41:12 437.485
XW-2A 26 Sep 21:40:33 21:43:52 48° 261° (W) 21:47:13 145.665 - 145.685
Tancredo 1 26 Sep 21:44:37 21:46:02 13° 341° (NNW) 21:47:28 437.200
BEESAT 2 26 Sep 21:48:21 21:52:21 64° 305° (NW) 21:56:23 435.950
ISS 26 Sep 21:58:53 22:02:05 52° 327° (NNW) 22:05:18 437.550
NO-84 26 Sep 22:04:37 22:06:35 17° 234° (SW) 22:08:30 435.350 FM
SEEDS 26 Sep 22:05:49 22:09:06 22° 266° (W) 22:12:24 437.485
UWE-3 26 Sep 22:06:04 22:10:10 43° 262° (W) 22:14:26 435.000/436.395/437.385
CUBEBUG 2 26 Sep 22:06:48 22:10:19 25° 266° (W) 22:13:57 437.445
AO-85 26 Sep 22:17:18 22:20:49 33° 309° (NW) 22:24:26 145.980
AAUSAT CUBESAT 2 26 Sep 22:17:57 22:21:44 34° 263° (W) 22:25:33 437.432
STRAND 1 26 Sep 22:20:34 22:25:40 65° 287° (WNW) 22:30:46 437.568
nSIGHT-1 26 Sep 22:32:32 22:35:20 26° 334° (NNW) 22:38:10 .
Oscar 11 26 Sep 22:36:25 22:40:43 60° 259° (W) 22:45:03 .
AO-73 26 Sep 22:41:30 22:45:32 37° 263° (W) 22:49:41 145.935
FO-29 26 Sep 22:43:15 22:48:05 28° 96° (E) 22:53:22 435.910
ZACube-1 26 Sep 22:46:41 22:50:29 29° 265° (W) 22:54:24 437.345
EO-88 26 Sep 22:58:18 23:01:21 25° 71° (ENE) 23:04:26 145.990 - 145.960
UNISAT 6 26 Sep 23:01:10 23:01:55 10° 89° (E) 23:02:41 437.425
YUBILEINY 26 Sep 23:08:40 23:13:27 15° 60° (ENE) 23:18:13 435.215
DELFI C3 26 Sep 23:15:45 23:19:41 84° 77° (ENE) 23:23:39 145.870
TIGRISAT 26 Sep 23:21:51 23:24:54 17° 92° (E) 23:27:56 435.000
ISS 26 Sep 23:37:11 23:39:08 15° 345° (NNW) 23:41:05 437.550
Max Valier Satellite 26 Sep 23:37:58 23:41:39 68° 258° (WSW) 23:45:24 145.860
ESTCUBE 1 26 Sep 23:42:22 23:43:11 10° 61° (ENE) 23:43:59 437.505/2401.250
